[[{"header":{"parameterUnit":"m.s-1","parameterCategory":1,"la1":30.2991,"la2":30.254,"lo1":-89.0895,"lo2":-89.0444,"dy":0.0017,"dx":0.0017,"nx":28,"ny":28,"refTime":"2024-08-01T09:00:00:Z","depth":0,"parameterNumber":2,"parameterNumberName":"U-component_of_WINDS"},"data":[0,0,0,0,0,0,0,0,0,0,0,0,0,0,0,0,0,0,0,0,0,0,0,0,0,0,0,0,0,0,0,0,0,0,0,0,0,0,0,0,0,0,0,0,0,0,0,0,0,0,0,0,0,0,0,0,0,0,5.2629,5.263,0,5.2774,5.2775,5.2777,5.2731,5.2728,5.2724,5.2722,5.2872,5.2878,5.2885,0,0,0,0,0,0,0,0,0,0,0,0,0,5.231,5.2316,5.2628,5.263,5.2632,5.2773,5.2775,5.2777,5.2731,5.2727,5.2724,5.272,5.2869,5.2878,5.2886,0,0,0,0,0,0,0,0,0,0,0,0,0,5.2451,5.2318,5.2628,5.2626,5.2627,5.2773,5.2776,5.2778,5.2732,5.2727,5.2723,5.2718,5.2867,5.2877,5.2887,5.3044,0,0,5.2919,5.2923,0,0,0,0,0,0,0,0,5.2443,5.2463,5.2624,5.2626,5.2628,5.2729,5.2718,5.2867,5.2733,5.2692,5.2721,5.2716,5.2828,5.2841,5.2879,5.3051,5.3058,5.2919,5.2926,5.293,5.2933,0,0,0,0,0,0,0,5.2433,5.2456,5.2686,5.2627,5.2629,5.2617,5.2632,5.2746,5.2785,5.2695,5.2692,5.271,5.2828,5.2869,5.2882,5.306,5.2919,5.2928,5.2935,5.2939,5.3364,5.3368,0,0,0,0,0,0,5.2422,5.2448,5.2681,5.269,5.2522,5.2627,5.2644,5.2702,5.2783,5.2791,5.2714,5.2708,5.2854,5.287,5.2887,5.3073,5.293,5.294,5.2946,5.3359,5.3365,5.337,0,0,0,0,0,0,5.2416,5.2444,5.2675,5.2568,5.2597,5.2637,5.2703,5.2707,5.2747,5.2797,5.2804,5.2749,5.2851,5.2873,5.3004,5.3078,5.2944,5.2954,5.3353,5.336,5.3367,5.3448,0,0,0,0,0,0,5.2407,5.2441,5.2502,5.257,5.2603,5.2791,5.2707,5.2713,5.2765,5.2758,5.2832,5.2839,5.2849,5.2989,5.3015,5.309,5.2962,5.3346,5.3356,5.3365,5.3439,5.3458,5.3474,0,0,0,0,0,5.2395,5.252,5.2505,5.2534,5.268,5.2795,5.2814,5.2822,5.2772,5.2832,5.2863,5.2837,5.3066,5.3003,5.3031,5.311,5.3341,5.3353,5.3364,5.3431,5.3454,5.3473,0,0,0,0,0,0,5.2461,5.2529,5.2513,5.2664,5.2724,5.2787,5.2864,5.2846,5.2922,5.2912,5.2919,5.2936,5.307,5.3104,5.3033,5.3265,5.3196,5.3214,5.3237,5.3259,5.3276,5.3264,5.297,0,0,0,0,0,5.2493,5.2581,5.2636,5.2763,5.2794,5.2824,5.2875,5.2875,5.2938,5.2963,5.3004,5.3066,5.3151,5.3208,5.329,5.3444,5.3458,5.3513,5.353,5.3544,5.3558,5.3638,5.3662,5.3408,5.3408,5.3407,0,0,5.256,5.2608,5.2663,5.2778,5.2824,5.2914,5.2846,5.2945,5.3011,5.2978,5.3104,5.3136,5.3206,5.3348,5.3413,5.338,5.3631,5.3558,5.3569,5.3576,5.3653,5.3677,5.3698,5.3416,5.3414,5.3413,0,0,5.2726,5.2773,5.2882,5.293,5.3,5.3019,5.3045,5.3111,5.313,5.3256,5.3232,5.3312,5.346,5.3509,5.3553,5.3736,5.3713,5.3762,5.3851,5.393,5.395,5.3967,5.4029,5.4052,5.3777,5.3777,5.3778,0,5.2801,5.2935,5.2941,5.3041,5.3091,5.3064,5.3174,5.322,5.3314,5.3348,5.331,5.3493,5.3538,5.369,5.3734,5.3772,5.38,5.3753,5.3946,5.3964,5.3981,5.404,5.4063,5.3783,5.3782,5.3782,5.3781,0,5.3021,5.3115,5.3195,5.3284,5.3343,5.3448,5.3468,5.3527,5.3522,5.3545,5.3672,5.3724,5.3814,5.3851,5.3849,5.4002,5.3979,5.3944,5.3875,5.401,5.4065,5.4088,5.379,5.3788,5.3787,5.3785,0,0,5.3234,5.3323,5.3352,5.339,5.3465,5.3537,5.364,5.3727,5.3776,5.3841,5.3925,5.405,5.4017,5.4067,5.407,5.4139,5.4275,5.4095,5.4096,5.4124,5.4444,5.4467,5.4493,5.4261,5.4266,5.4269,5.4436,0,5.3404,5.3583,5.359,5.3753,5.3838,5.3812,5.3901,5.3956,5.3979,5.4054,5.408,5.4166,5.4118,5.4147,5.4215,5.4244,5.4339,5.4233,5.4338,5.4341,5.4318,5.4523,5.4549,5.4704,5.4458,5.4462,5.4465,0,5.3627,5.3697,5.3868,5.3927,5.3963,5.4043,5.4121,5.4193,5.4254,5.4266,5.4321,5.4312,5.4415,5.4344,5.4484,5.4412,5.4455,5.4476,5.4482,5.449,5.4409,5.4533,5.4754,5.4776,5.45,5.4497,5.4494,0,5.376,5.3898,5.4017,5.4051,5.4124,5.418,5.4213,5.4269,5.432,5.4389,5.4421,5.4502,5.4545,5.4607,5.462,5.4567,5.4759,5.469,5.477,5.4769,5.481,5.4806,5.5038,5.4843,5.4843,5.4842,5.4842,0,5.3949,5.4053,5.4077,5.415,5.4265,5.4272,5.4386,5.4415,5.4465,5.4542,5.4526,5.4599,5.4613,5.4688,5.4699,5.4811,5.4832,5.4843,5.4844,5.4843,5.4841,5.4869,5.4858,5.4848,5.4847,5.4846,5.4845,0,5.4116,5.4137,5.4264,5.4322,5.4339,5.4421,5.447,5.4539,5.4559,5.4657,5.468,5.4713,5.48,5.4819,5.4924,5.4931,5.5063,5.5056,5.5042,5.504,5.5118,5.5109,5.5373,5.5406,5.5193,5.5195,5.5197,0,5.4234,5.4313,5.4378,5.4428,5.4463,5.4545,5.4595,5.4604,5.4658,5.4731,5.4791,5.4876,5.4944,5.5085,5.5118,5.5196,5.5188,5.5276,5.52,5.5195,5.5185,5.5179,5.5185,5.5289,5.5291,5.5293,5.5295,0,5.4438,5.4443,5.4517,5.4594,5.4654,5.4715,5.4773,5.4815,5.4832,5.4893,5.4981,5.5034,5.5139,5.5222,5.5301,5.5334,5.5317,5.5318,5.534,5.5338,5.5326,5.533,5.5078,5.5312,5.531,5.5309,5.5308,5.5307,5.4582,5.465,5.4705,5.4787,5.4831,5.4885,5.4951,5.4979,5.5052,5.5137,5.5139,5.5234,5.529,5.5393,5.5431,5.5505,5.5478,5.5511,5.5519,5.5526,5.5531,5.5316,5.552,5.552,5.5519,5.5519,5.5519,0,5.4782,5.4816,5.4891,5.4971,5.5035,5.5013,5.5075,5.5129,5.5213,5.5267,5.5333,5.5433,5.5514,5.5552,5.5631,5.5683,5.5676,5.5703,5.5697,5.5705,5.5553,5.5524,5.5706,5.5706,5.5706,5.5706,5.5706,5.5706,5.4894,5.5006,5.5018,5.515,5.5184,5.5276,5.5313,5.5362,5.5404,5.5515,5.5582,5.5606,5.5652,5.5734,5.5806,5.5815,5.5844,5.5873,5.5878,5.5735,5.5716,5.5698,5.567,5.588,5.5881,5.6023,5.6025,5.6026]},{"header":{"parameterUnit":"m.s-1","parameterCategory":1,"la1":30.2991,"la2":30.254,"lo1":-89.0895,"lo2":-89.0444,"dy":0.0017,"dx":0.0017,"nx":28,"ny":28,"refTime":"2024-08-01T09:00:00:Z","depth":0,"parameterNumber":3,"parameterNumberName":"V-component_of_WINDS"},"data":[0,0,0,0,0,0,0,0,0,0,0,0,0,0,0,0,0,0,0,0,0,0,0,0,0,0,0,0,0,0,0,0,0,0,0,0,0,0,0,0,0,0,0,0,0,0,0,0,0,0,0,0,0,0,0,0,0,0,3.6069,3.607,0,3.614,3.6141,3.6142,3.6127,3.6126,3.6124,3.6123,3.6192,3.6195,3.6198,0,0,0,0,0,0,0,0,0,0,0,0,0,3.5917,3.592,3.6069,3.607,3.6071,3.614,3.6141,3.6142,3.6127,3.6125,3.6124,3.6122,3.6191,3.6195,3.6198,0,0,0,0,0,0,0,0,0,0,0,0,0,3.5985,3.5921,3.6069,3.6072,3.6073,3.614,3.6141,3.6142,3.6127,3.6125,3.6124,3.6122,3.619,3.6194,3.6199,3.6266,0,0,3.6213,3.6215,0,0,0,0,0,0,0,0,3.5981,3.599,3.6071,3.6072,3.6073,3.6123,3.6113,3.6184,3.6128,3.6107,3.6123,3.6121,3.617,3.6176,3.6194,3.6269,3.6272,3.6213,3.6216,3.6218,3.6219,0,0,0,0,0,0,0,3.5976,3.5987,3.6097,3.6072,3.6073,3.6068,3.6076,3.6126,3.6148,3.6108,3.6107,3.6116,3.6171,3.619,3.6195,3.6273,3.6213,3.6217,3.622,3.6222,3.6406,3.6408,0,0,0,0,0,0,3.5971,3.5983,3.6095,3.6099,3.6021,3.6073,3.6081,3.6109,3.6148,3.6152,3.6118,3.6115,3.6183,3.619,3.6198,3.6278,3.6218,3.6222,3.6225,3.6404,3.6406,3.6408,0,0,0,0,0,0,3.5968,3.5981,3.6092,3.6041,3.6055,3.6077,3.6108,3.6111,3.613,3.6155,3.6159,3.6133,3.6181,3.6191,3.6249,3.628,3.6224,3.6229,3.6401,3.6404,3.6407,3.644,0,0,0,0,0,0,3.5964,3.598,3.6007,3.6042,3.6058,3.6144,3.611,3.6114,3.6138,3.6136,3.6171,3.6174,3.6181,3.6242,3.6254,3.6286,3.6232,3.6398,3.6402,3.6406,3.6436,3.6444,3.645,0,0,0,0,0,3.5958,3.6013,3.6008,3.6022,3.6092,3.6145,3.6154,3.6161,3.6141,3.6167,3.6183,3.6173,3.6275,3.6248,3.6261,3.6295,3.6396,3.6401,3.6406,3.6433,3.6442,3.645,0,0,0,0,0,0,3.598,3.6018,3.6013,3.6081,3.611,3.6143,3.6177,3.6171,3.6206,3.6202,3.6208,3.6216,3.6275,3.629,3.626,3.6361,3.6333,3.634,3.6349,3.6358,3.6365,3.636,3.6236,0,0,0,0,0,3.5993,3.6035,3.6065,3.6122,3.6137,3.6154,3.6178,3.6181,3.6211,3.6223,3.6243,3.6271,3.6309,3.6334,3.6371,3.6438,3.6445,3.6467,3.6474,3.648,3.6486,3.6521,3.6531,3.6424,3.6424,3.6424,0,0,3.602,3.6046,3.6071,3.6127,3.615,3.6191,3.6165,3.621,3.624,3.6229,3.6285,3.6301,3.6333,3.6395,3.6423,3.641,3.6517,3.6486,3.6491,3.6494,3.6527,3.6537,3.6546,3.6427,3.6427,3.6426,0,0,3.609,3.6114,3.6164,3.6187,3.6223,3.6234,3.6246,3.6279,3.6289,3.6346,3.6338,3.6373,3.6439,3.6462,3.6482,3.6559,3.6551,3.6571,3.6608,3.6642,3.6651,3.6658,3.6684,3.6694,3.6577,3.6577,3.6577,0,3.6119,3.6182,3.619,3.6236,3.6259,3.6252,3.6301,3.6323,3.6368,3.6384,3.6369,3.6451,3.6472,3.6539,3.6557,3.6575,3.6587,3.6567,3.6649,3.6657,3.6664,3.6689,3.6699,3.6579,3.6579,3.6579,3.6579,0,3.6215,3.6259,3.6295,3.6339,3.6367,3.6414,3.6427,3.6454,3.6454,3.6466,3.6523,3.6548,3.6589,3.6605,3.6605,3.6671,3.6662,3.6648,3.6619,3.6676,3.67,3.6709,3.6583,3.6582,3.6581,3.6581,0,0,3.6302,3.6349,3.6362,3.6381,3.6419,3.6453,3.6499,3.654,3.6562,3.6593,3.6631,3.6686,3.6673,3.6696,3.6699,3.6729,3.6787,3.6711,3.6711,3.6723,3.6859,3.6869,3.6881,3.6781,3.6783,3.6785,3.6856,0,3.6374,3.6457,3.6465,3.6538,3.6578,3.6571,3.6611,3.6637,3.665,3.6684,3.6697,3.6736,3.6716,3.673,3.6759,3.6774,3.6814,3.6768,3.6815,3.6817,3.6807,3.6893,3.6904,3.6971,3.6866,3.6867,3.6869,0,3.6471,3.6505,3.6583,3.6614,3.6631,3.6667,3.6704,3.6738,3.6767,3.6774,3.6799,3.6797,3.6843,3.6813,3.6875,3.6844,3.6863,3.6873,3.6875,3.688,3.6846,3.6899,3.6992,3.7002,3.6883,3.6882,3.6881,0,3.6525,3.659,3.6645,3.6662,3.67,3.6725,3.6742,3.677,3.6793,3.6825,3.684,3.6877,3.6897,3.6925,3.6932,3.691,3.6994,3.6965,3.6999,3.6999,3.7017,3.7015,3.7114,3.703,3.703,3.703,3.703,0,3.6605,3.6652,3.667,3.6703,3.6756,3.6763,3.6814,3.6829,3.6854,3.6889,3.6885,3.6917,3.6926,3.696,3.6966,3.7015,3.7024,3.703,3.7031,3.703,3.7029,3.7042,3.7038,3.7033,3.7032,3.7032,3.7031,0,3.6674,3.6688,3.6747,3.6778,3.6787,3.6824,3.685,3.6881,3.6892,3.6937,3.6948,3.6965,3.7005,3.7015,3.7062,3.7066,3.7124,3.7121,3.7115,3.7114,3.7148,3.7144,3.7257,3.7272,3.718,3.7181,3.7181,0,3.6724,3.6761,3.6796,3.6819,3.6837,3.6876,3.69,3.6908,3.6933,3.6968,3.6995,3.7034,3.7066,3.7129,3.7145,3.718,3.7177,3.7215,3.7183,3.718,3.7177,3.7174,3.7177,3.7221,3.7222,3.7222,3.7223,0,3.6811,3.6816,3.6851,3.6889,3.6918,3.6948,3.6977,3.6996,3.7008,3.7036,3.7077,3.7101,3.7149,3.7188,3.7223,3.7239,3.7232,3.7233,3.7243,3.7242,3.7236,3.7239,3.713,3.723,3.7229,3.7229,3.7229,3.7228,3.6871,3.6903,3.6932,3.6972,3.6994,3.7021,3.7052,3.7067,3.7101,3.7142,3.7144,3.7188,3.7214,3.7262,3.7279,3.7313,3.7301,3.7316,3.7319,3.7322,3.7325,3.7232,3.7319,3.7319,3.7319,3.7319,3.7319,0,3.6957,3.6975,3.7012,3.7052,3.7083,3.7075,3.7106,3.7131,3.7171,3.7197,3.7228,3.7274,3.7311,3.7329,3.7366,3.7389,3.7386,3.7398,3.7396,3.7399,3.7333,3.7321,3.7399,3.7399,3.7399,3.7399,3.7399,3.7399,3.7005,3.7058,3.7066,3.7129,3.7147,3.719,3.7208,3.7232,3.7253,3.7305,3.7336,3.7348,3.7371,3.7408,3.7441,3.7445,3.7458,3.7471,3.7474,3.7412,3.7404,3.7396,3.7384,3.7474,3.7474,3.7536,3.7537,3.7537]}]]